Regional Weather Roundup
Issued by NWS Green Bay, WI

Home | Current Version | Previous Version | Graphics & Text | Print | Product List | Glossary Off
Versions: 1 2 3 4 5 6 7 8 9 10 11 12 13 14 15 16 17 18 19 20 21 22 23 24 25 26 27 28 29 30 31 32 33 34 35 36 37 38 39 40 41 42 43 44 45 46 47 48 49 50

000
ASUS43 KGRB 221511
RWRGRB

NORTH-CENTRAL AND NORTHEAST WISCONSIN REGIONAL WEATHER ROUNDUP
NATIONAL WEATHER SERVICE GREEN BAY WI
900 AM CST THU FEB 22 2018

WIZ005-009-010>012-018-019-221600-
NORTH CENTRAL WISCONSIN

CITY           SKY/WX    TMP DP  RH WIND       PRES   REMARKS
IRONWOOD       FAIR      10   6  84 CALM      30.62F
MANITOWISH WTR FAIR       2  -1  89 CALM      30.59F
ARBOR VITAE    FAIR      11   7  82 SE3       30.58F
EAGLE RIVER    FAIR       8   2  78 CALM      30.59F
LAND O LAKES   FAIR       6   2  81 CALM      30.61F
RHINELANDER    PTSUNNY   13   7  77 CALM      30.59F
PHILLIPS       FAIR       8   3  80 CALM      30.58F
ANTIGO         PTSUNNY   19   9  65 E6        30.60S
TOMAHAWK       PTSUNNY   12   7  79 CALM      30.60F
MERRILL        PTSUNNY   12   6  77 CALM      30.61F
$$

WIZ013-073-221600-
NORTHEAST WISCONSIN

CITY           SKY/WX    TMP DP  RH WIND       PRES   REMARKS
IRON MOUNTAIN  CLOUDY    12   6  77 NW3       30.64F
MARINETTE      FAIR      22  14  71 E3        30.69F
OCONTO         FAIR      22  12  65 N5        30.68F
$$

WIZ017-030-035>037-045-221600-
CENTRAL WISCONSIN

CITY           SKY/WX    TMP DP  RH WIND       PRES   REMARKS
MEDFORD        PTSUNNY   13   5  70 E7        30.58F WCI   2
WAUSAU         CLOUDY    15   8  73 CALM      30.60S
MOSINEE        PTSUNNY   18  10  73 E6        30.62R WCI   9
MARSHFIELD     CLOUDY    15   7  70 E6        30.59R WCI   6
WISC RAPIDS    CLOUDY    20  10  65 E8        30.62F
STEVENS POINT  FAIR      17   9  70 E7        30.62S WCI   8
WAUPACA        PTSUNNY   23  12  63 NE5       30.64S
SHAWANO        FAIR      22  12  65 NE7       30.65F
CLINTONVILLE   CLOUDY    20  10  65 NE7       30.65F
WAUTOMA        CLOUDY    21  13  71 NE5       30.64R
$$

WIZ038-039-048-051-221600-
FOX VALLEY

CITY           SKY/WX    TMP DP  RH WIND       PRES   REMARKS
NWS GREEN BAY  PTSUNNY   22  12  65 NE12      30.66F
APPLETON       CLOUDY    21  10  63 NE9       30.62S
OSHKOSH        CLOUDY    22  15  75 N10       30.62F
FOND DU LAC    CLOUDY    24  16  71 NE7       30.60F
$$

WIZ022-050-052-221600-
EAST CENTRAL WISCONSIN

CITY           SKY/WX    TMP DP  RH WIND       PRES   REMARKS
EPHRAIM        FAIR      21  16  81 CALM      30.67S
WASHINGTON ISL FAIR      21  18  86 N5        30.68F
STURGEON BAY   PTSUNNY   22  16  78 N7        30.67F
MANITOWOC      CLOUDY    25  20  81 NE3       30.64F
SHEBOYGAN      FAIR      28  23  81 NE10      30.63F
$$

LMZ563-521-522-541>543-221600-
LAKESHORE

STATION/POSITION TIME  TEMP    WIND        PRES    VSBY  WAVE
                       AIR SEA DIR/SP/G                  HT/PER
                 (UTC) (F)     (DEG/KT/KT) (MB)    (MI)  (FT/S)
SHEBOYGAN LKSHOR 1500   30      40/ 13/ 14 1038.3F
KEWAUNEE LKSHORE 1442   25      10/  5/ 10 1037.3F
NORTHPORT PIER   1440   21                 1038.6F
MENOMINEE LKSHOR 1442   18     360/  5/  7 1038.8F
$$



USA.gov is the U.S. government's official web portal to all federal, state and local government web resources and services.